Time,TemperatureF,DewpointF,PressureIn,WindDirection,WindDirectionDegrees,WindSpeedMPH,WindSpeedGustMPH,Humidity,HourlyPrecipIn,Conditions,Clouds,dailyrainin,SoftwareType,DateUTC
2013-11-20 00:05:00,69.8,67.0,29.95,NE,35,9.0,14.0,89,0.00,,,0.00,weatherlink.com 1.10,2013-11-20 06:05:00,
2013-11-20 00:20:00,69.8,67.0,29.94,NE,51,9.0,12.0,89,0.00,,,0.00,weatherlink.com 1.10,2013-11-20 06:20:00,
2013-11-20 00:35:00,70.0,67.0,29.94,NE,45,9.0,12.0,90,0.00,,,0.00,weatherlink.com 1.10,2013-11-20 06:35:00,
2013-11-20 00:50:00,70.1,67.0,29.93,NE,44,8.0,13.0,90,0.00,,,0.00,weatherlink.com 1.10,2013-11-20 06:50:00,
2013-11-20 01:05:00,70.2,67.0,29.93,NE,41,10.0,15.0,90,0.00,,,0.00,weatherlink.com 1.10,2013-11-20 07:05:00,
2013-11-20 01:20:00,70.3,67.0,29.93,NE,48,11.0,12.0,90,0.00,,,0.00,weatherlink.com 1.10,2013-11-20 07:20:00,
2013-11-20 01:35:00,70.4,67.0,29.93,NE,40,9.0,11.0,90,0.00,,,0.00,weatherlink.com 1.10,2013-11-20 07:35:00,
2013-11-20 01:50:00,70.5,68.0,29.93,ENE,73,5.0,12.0,90,0.00,,,0.00,weatherlink.com 1.10,2013-11-20 07:50:00,
2013-11-20 02:05:00,70.6,68.0,29.92,NE,50,10.0,14.0,90,0.00,,,0.00,weatherlink.com 1.10,2013-11-20 08:05:00,
2013-11-20 02:20:00,70.7,68.0,29.91,ENE,70,4.0,11.0,90,0.00,,,0.00,weatherlink.com 1.10,2013-11-20 08:20:00,
2013-11-20 02:35:00,70.7,68.0,29.91,ENE,71,9.0,12.0,90,0.00,,,0.00,weatherlink.com 1.10,2013-11-20 08:35:00,
2013-11-20 02:50:00,70.8,68.0,29.91,NE,40,9.0,11.0,90,0.00,,,0.00,weatherlink.com 1.10,2013-11-20 08:50:00,
2013-11-20 03:05:00,70.9,68.0,29.91,ENE,74,10.0,13.0,90,0.00,,,0.00,weatherlink.com 1.10,2013-11-20 09:05:00,
2013-11-20 03:20:00,70.7,68.0,29.91,NE,56,7.0,13.0,91,0.00,,,0.00,weatherlink.com 1.10,2013-11-20 09:20:00,
2013-11-20 03:35:00,70.5,68.0,29.90,NE,38,5.0,10.0,91,0.00,,,0.00,weatherlink.com 1.10,2013-11-20 09:35:00,
2013-11-20 03:50:00,70.4,68.0,29.90,NE,35,8.0,12.0,92,0.00,,,0.00,weatherlink.com 1.10,2013-11-20 09:50:00,
2013-11-20 04:05:00,70.4,68.0,29.91,NE,54,10.0,12.0,91,0.00,,,0.00,weatherlink.com 1.10,2013-11-20 10:05:00,
2013-11-20 04:20:00,70.3,68.0,29.90,NE,52,7.0,14.0,91,0.00,,,0.00,weatherlink.com 1.10,2013-11-20 10:20:00,
2013-11-20 04:35:00,70.3,68.0,29.90,NE,47,9.0,12.0,91,0.00,,,0.00,weatherlink.com 1.10,2013-11-20 10:35:00,
2013-11-20 04:50:00,70.3,68.0,29.90,ENE,71,6.0,11.0,92,0.00,,,0.00,weatherlink.com 1.10,2013-11-20 10:50:00,
2013-11-20 05:05:00,70.5,68.0,29.89,NE,38,9.0,12.0,92,0.00,,,0.00,weatherlink.com 1.10,2013-11-20 11:05:00,
2013-11-20 05:20:00,70.5,68.0,29.90,NE,38,9.0,12.0,92,0.00,,,0.00,weatherlink.com 1.10,2013-11-20 11:20:00,
2013-11-20 05:35:00,70.7,68.0,29.90,NE,54,8.0,14.0,91,0.00,,,0.00,weatherlink.com 1.10,2013-11-20 11:35:00,
2013-11-20 05:50:00,70.7,68.0,29.90,NE,54,8.0,12.0,91,0.00,,,0.00,weatherlink.com 1.10,2013-11-20 11:50:00,
2013-11-20 06:05:00,71.1,68.0,29.90,NE,39,9.0,14.0,91,0.00,,,0.00,weatherlink.com 1.10,2013-11-20 12:05:00,
2013-11-20 06:20:00,70.7,68.0,29.91,NE,51,7.0,13.0,91,0.00,,,0.00,weatherlink.com 1.10,2013-11-20 12:20:00,
2013-11-20 06:35:00,70.6,68.0,29.91,NE,39,5.0,15.0,91,0.00,,,0.00,weatherlink.com 1.10,2013-11-20 12:35:00,
2013-11-20 06:50:00,70.5,68.0,29.91,NE,51,11.0,14.0,91,0.00,,,0.00,weatherlink.com 1.10,2013-11-20 12:50:00,
2013-11-20 07:05:00,70.5,68.0,29.91,NE,41,9.0,15.0,91,0.00,,,0.00,weatherlink.com 1.10,2013-11-20 13:05:00,
2013-11-20 07:20:00,70.3,68.0,29.91,NE,38,8.0,12.0,91,0.00,,,0.00,weatherlink.com 1.10,2013-11-20 13:20:00,
2013-11-20 07:35:00,70.1,68.0,29.91,NNE,15,7.0,13.0,92,0.00,,,0.00,weatherlink.com 1.10,2013-11-20 13:35:00,
2013-11-20 07:50:00,70.1,68.0,29.91,NNE,25,11.0,15.0,92,0.00,,,0.00,weatherlink.com 1.10,2013-11-20 13:50:00,
2013-11-20 08:05:00,70.3,68.0,29.91,NE,46,10.0,13.0,92,0.00,,,0.00,weatherlink.com 1.10,2013-11-20 14:05:00,
2013-11-20 08:20:00,70.6,68.0,29.91,NE,49,7.0,14.0,92,0.00,,,0.00,weatherlink.com 1.10,2013-11-20 14:20:00,
2013-11-20 08:35:00,71.2,69.0,29.92,NE,55,8.0,14.0,92,0.00,,,0.00,weatherlink.com 1.10,2013-11-20 14:35:00,
2013-11-20 08:50:00,71.1,69.0,29.92,NE,34,5.0,12.0,92,0.00,,,0.00,weatherlink.com 1.10,2013-11-20 14:50:00,
2013-11-20 09:05:00,72.0,69.0,29.93,NE,44,4.0,13.0,91,0.00,,,0.00,weatherlink.com 1.10,2013-11-20 15:05:00,
2013-11-20 09:21:00,72.6,70.0,29.93,NE,47,6.0,13.0,90,0.00,,,0.00,weatherlink.com 1.10,2013-11-20 15:21:00,
2013-11-20 09:36:00,72.7,70.0,29.92,NE,54,6.0,12.0,90,0.00,,,0.00,weatherlink.com 1.10,2013-11-20 15:36:00,
2013-11-20 09:51:00,73.3,70.0,29.93,East,91,7.0,11.0,89,0.00,,,0.00,weatherlink.com 1.10,2013-11-20 15:51:00,
2013-11-20 10:06:00,74.0,71.0,29.92,East,91,5.0,12.0,89,0.00,,,0.00,weatherlink.com 1.10,2013-11-20 16:06:00,
2013-11-20 10:21:00,74.7,71.0,29.91,ENE,74,9.0,13.0,87,0.00,,,0.00,weatherlink.com 1.10,2013-11-20 16:21:00,
2013-11-20 10:36:00,75.3,71.0,29.92,ESE,102,11.0,14.0,87,0.00,,,0.00,weatherlink.com 1.10,2013-11-20 16:36:00,
2013-11-20 10:51:00,74.8,71.0,29.91,ENE,60,11.0,13.0,87,0.00,,,0.00,weatherlink.com 1.10,2013-11-20 16:51:00,
2013-11-20 11:06:00,74.9,71.0,29.91,East,100,8.0,14.0,87,0.00,,,0.00,weatherlink.com 1.10,2013-11-20 17:06:00,
2013-11-20 11:21:00,75.2,71.0,29.90,East,83,9.0,13.0,87,0.00,,,0.00,weatherlink.com 1.10,2013-11-20 17:21:00,
2013-11-20 11:36:00,75.4,71.0,29.89,ESE,106,15.0,19.0,86,0.00,,,0.00,weatherlink.com 1.10,2013-11-20 17:36:00,
2013-11-20 11:51:00,76.5,72.0,29.89,ESE,102,8.0,19.0,86,0.00,,,0.00,weatherlink.com 1.10,2013-11-20 17:51:00,
2013-11-20 12:06:00,76.7,72.0,29.89,ESE,102,9.0,13.0,84,0.00,,,0.00,weatherlink.com 1.10,2013-11-20 18:06:00,
2013-11-20 12:21:00,76.9,72.0,29.88,ESE,108,10.0,14.0,84,0.00,,,0.00,weatherlink.com 1.10,2013-11-20 18:21:00,
2013-11-20 12:36:00,76.3,72.0,29.87,ESE,109,8.0,15.0,85,0.00,,,0.00,weatherlink.com 1.10,2013-11-20 18:36:00,
2013-11-20 12:51:00,77.1,72.0,29.87,ESE,103,10.0,12.0,85,0.00,,,0.00,weatherlink.com 1.10,2013-11-20 18:51:00,
2013-11-20 13:21:00,77.4,72.0,29.86,ESE,112,6.0,11.0,83,0.00,,,0.00,weatherlink.com 1.10,2013-11-20 19:21:00,
2013-11-20 13:36:00,77.6,73.0,29.85,ESE,115,9.0,13.0,84,0.00,,,0.00,weatherlink.com 1.10,2013-11-20 19:36:00,
2013-11-20 13:51:00,77.8,72.0,29.84,ESE,104,5.0,11.0,83,0.00,,,0.00,weatherlink.com 1.10,2013-11-20 19:51:00,
2013-11-20 14:06:00,77.9,72.0,29.84,ESE,102,6.0,12.0,83,0.00,,,0.00,weatherlink.com 1.10,2013-11-20 20:06:00,
2013-11-20 14:21:00,77.4,72.0,29.84,East,79,6.0,10.0,84,0.00,,,0.00,weatherlink.com 1.10,2013-11-20 20:21:00,
2013-11-20 14:36:00,77.2,72.0,29.83,ESE,113,5.0,11.0,85,0.00,,,0.00,weatherlink.com 1.10,2013-11-20 20:36:00,
2013-11-20 14:52:00,77.0,72.0,29.83,East,84,5.0,10.0,85,0.00,,,0.00,weatherlink.com 1.10,2013-11-20 20:52:00,
2013-11-20 15:06:00,76.9,73.0,29.83,ESE,123,7.0,9.0,86,0.00,,,0.00,weatherlink.com 1.10,2013-11-20 21:06:00,
2013-11-20 15:22:00,77.2,72.0,29.83,ENE,75,7.0,10.0,85,0.00,,,0.00,weatherlink.com 1.10,2013-11-20 21:22:00,
2013-11-20 15:36:00,77.0,73.0,29.83,ESE,123,4.0,10.0,86,0.00,,,0.00,weatherlink.com 1.10,2013-11-20 21:36:00,
2013-11-20 15:51:00,76.9,73.0,29.83,SE,132,5.0,9.0,86,0.00,,,0.00,weatherlink.com 1.10,2013-11-20 21:51:00,
2013-11-20 16:06:00,76.3,72.0,29.83,ESE,106,7.0,9.0,87,0.00,,,0.00,weatherlink.com 1.10,2013-11-20 22:06:00,
2013-11-20 16:21:00,75.8,72.0,29.83,ESE,109,7.0,7.0,88,0.00,,,0.00,weatherlink.com 1.10,2013-11-20 22:21:00,
2013-11-20 16:36:00,75.2,72.0,29.84,East,90,4.0,10.0,89,0.00,,,0.00,weatherlink.com 1.10,2013-11-20 22:36:00,
2013-11-20 16:51:00,74.7,71.0,29.84,ESE,115,6.0,7.0,89,0.00,,,0.00,weatherlink.com 1.10,2013-11-20 22:51:00,
2013-11-20 17:06:00,73.9,71.0,29.84,East,96,2.0,6.0,90,0.00,,,0.00,weatherlink.com 1.10,2013-11-20 23:06:00,
2013-11-20 17:21:00,73.3,71.0,29.84,East,84,4.0,6.0,91,0.00,,,0.00,weatherlink.com 1.10,2013-11-20 23:21:00,
2013-11-20 17:36:00,73.2,71.0,29.84,ESE,106,2.0,7.0,92,0.00,,,0.00,weatherlink.com 1.10,2013-11-20 23:36:00,
2013-11-20 17:51:00,73.1,71.0,29.85,ESE,114,0.0,5.0,92,0.00,,,0.00,weatherlink.com 1.10,2013-11-20 23:51:00,
2013-11-20 18:06:00,72.7,71.0,29.85,ESE,113,1.0,5.0,93,0.00,,,0.00,weatherlink.com 1.10,2013-11-21 00:06:00,
2013-11-20 18:21:00,72.8,71.0,29.85,ESE,113,3.0,4.0,93,0.00,,,0.00,weatherlink.com 1.10,2013-11-21 00:21:00,
2013-11-20 18:36:00,72.9,71.0,29.86,ESE,117,3.0,6.0,93,0.00,,,0.00,weatherlink.com 1.10,2013-11-21 00:36:00,
2013-11-20 18:51:00,73.0,71.0,29.86,ESE,103,4.0,6.0,93,0.00,,,0.00,weatherlink.com 1.10,2013-11-21 00:51:00,
2013-11-20 19:06:00,72.8,71.0,29.87,ESE,106,5.0,6.0,93,0.00,,,0.00,weatherlink.com 1.10,2013-11-21 01:06:00,
2013-11-20 19:21:00,73.0,71.0,29.87,ESE,122,6.0,10.0,94,0.00,,,0.00,weatherlink.com 1.10,2013-11-21 01:21:00,
2013-11-20 19:36:00,73.0,71.0,29.87,ESE,118,8.0,9.0,93,0.00,,,0.00,weatherlink.com 1.10,2013-11-21 01:36:00,
2013-11-20 19:51:00,73.1,71.0,29.88,SSE,150,9.0,10.0,93,0.00,,,0.00,weatherlink.com 1.10,2013-11-21 01:51:00,
2013-11-20 20:06:00,73.4,71.0,29.88,SE,146,4.0,10.0,93,0.00,,,0.00,weatherlink.com 1.10,2013-11-21 02:06:00,
2013-11-20 20:21:00,73.4,71.0,29.88,SE,128,2.0,8.0,92,0.00,,,0.00,weatherlink.com 1.10,2013-11-21 02:21:00,
2013-11-20 20:36:00,73.3,71.0,29.89,SSE,148,7.0,11.0,93,0.00,,,0.00,weatherlink.com 1.10,2013-11-21 02:36:00,
2013-11-20 20:51:00,73.6,71.0,29.89,ESE,119,9.0,12.0,92,0.00,,,0.00,weatherlink.com 1.10,2013-11-21 02:51:00,
2013-11-20 21:06:00,73.6,71.0,29.89,SE,144,5.0,12.0,92,0.00,,,0.00,weatherlink.com 1.10,2013-11-21 03:06:00,
2013-11-20 21:21:00,73.5,71.0,29.90,SE,134,2.0,9.0,92,0.00,,,0.00,weatherlink.com 1.10,2013-11-21 03:21:00,
2013-11-20 21:36:00,73.1,71.0,29.90,SE,130,2.0,6.0,92,0.00,,,0.00,weatherlink.com 1.10,2013-11-21 03:36:00,
2013-11-20 21:51:00,72.8,70.0,29.91,SE,139,0.0,5.0,92,0.00,,,0.00,weatherlink.com 1.10,2013-11-21 03:51:00,
2013-11-20 22:06:00,72.6,70.0,29.90,ESE,117,2.0,5.0,92,0.00,,,0.00,weatherlink.com 1.10,2013-11-21 04:06:00,
2013-11-20 22:21:00,72.5,70.0,29.90,SE,142,5.0,6.0,93,0.00,,,0.00,weatherlink.com 1.10,2013-11-21 04:21:00,
2013-11-20 22:36:00,72.4,70.0,29.90,SSE,148,2.0,8.0,93,0.00,,,0.00,weatherlink.com 1.10,2013-11-21 04:36:00,
2013-11-20 22:51:00,72.4,71.0,29.90,SSE,152,10.0,12.0,94,0.00,,,0.00,weatherlink.com 1.10,2013-11-21 04:51:00,
2013-11-20 23:06:00,72.5,71.0,29.90,SSE,150,8.0,13.0,94,0.00,,,0.00,weatherlink.com 1.10,2013-11-21 05:06:00,
2013-11-20 23:21:00,72.4,71.0,29.90,SSE,148,4.0,10.0,94,0.00,,,0.00,weatherlink.com 1.10,2013-11-21 05:21:00,
2013-11-20 23:36:00,72.3,71.0,29.90,SSE,148,3.0,10.0,94,0.00,,,0.00,weatherlink.com 1.10,2013-11-21 05:36:00,
2013-11-20 23:52:00,72.4,71.0,29.89,SSE,154,6.0,8.0,94,0.00,,,0.00,weatherlink.com 1.10,2013-11-21 05:52:00,